[Iaude] MPEC F40: 2024 FA1 [a=1.39,e=0.25,i=17.9,H=22.6]
    mpec at cfa.harvard.edu 
    mpec at cfa.harvard.edu
       
    Tue Mar 19 16:43:28 EDT 2024
    
    
  
M.P.E.C. 2024-F40                                Issued 2024 March 19, 20:41 UT
     The Minor Planet Electronic Circulars contain information on unusual
         minor planets, routine data on comets and natural satellites,
         and occasional editorial announcements.  They are published
    on behalf of Division F of the International Astronomical Union by the
          Minor Planet Center, Smithsonian Astrophysical Observatory,
                          Cambridge, MA 02138, U.S.A.
			  
             Prepared using the Tamkin Foundation Computer Network
                              MPC at CFA.HARVARD.EDU
            URL https://www.minorplanetcenter.net/    ISSN 1523-6714
                                    2024 FA1                                    
Observations:
     K24F01A* C2024 03 17.29410511 25 51.793+37 27 25.86         21.34wXEF040F52
     K24F01A  C2024 03 17.30586611 25 48.641+37 27 05.48         21.22wXEF040F52
     K24F01A  C2024 03 17.31763911 25 45.522+37 26 45.16         21.30wXEF040F52
     K24F01A  C2024 03 17.32938911 25 42.390+37 26 24.36         21.07wXEF040F52
     K24F01A  C2024 03 17.39208411 25 25.479+37 24 31.87         20.72GVEF040F52
     K24F01A  C2024 03 17.39290611 25 25.271+37 24 30.37         21.00GVEF040F52
     K24F01A KC2024 03 18.15061511 22 12.94 +37 00 12.0          21.0 GVEF040H21
     K24F01A KB2024 03 18.15350 11 22 12.446+37 00 04.43         20.8 GVEF040734
     K24F01A KC2024 03 18.15620911 22 11.46 +37 00 01.5          21.4 GVEF040H21
     K24F01A KC2024 03 18.15844311 22 11.867+36 59 57.73               VEF040I52
     K24F01A KC2024 03 18.15965411 22 11.521+36 59 55.43               VEF040I52
     K24F01A KC2024 03 18.16040611 22 10.27 +36 59 53.0          21.2 GVEF040H21
     K24F01A KC2024 03 18.16086811 22 11.082+36 59 51.79         21.85GVEF040I52
     K24F01A KC2024 03 18.16208111 22 10.830+36 59 49.56               VEF040I52
     K24F01A KC2024 03 18.16460011 22 09.16 +36 59 44.6          21.4 GVEF040H21
     K24F01A KB2024 03 18.17214 11 22 07.452+36 59 29.44         20.4 GVEF040734
     K24F01A  C2024 03 18.45821211 20 52.181+36 50 11.64         20.74GVEF040F52
     K24F01A  C2024 03 18.45903411 20 51.966+36 50 10.05         20.65GVEF040F52
     K24F01A KC2024 03 19.12778411 18 01.52 +36 26 49.0          21.1 GVEF040H21
     K24F01A KC2024 03 19.13617611 17 59.24 +36 26 31.7          20.6 GVEF040H21
     K24F01A KC2024 03 19.13906611 17 58.45 +36 26 25.6          20.6 GVEF040H21
     K24F01A 1C2024 03 19.32345411 17 10.983+36 20 01.72         20.76GVEF040T12
     K24F01A 1C2024 03 19.32538411 17 10.458+36 19 57.76         20.63GVEF040T12
Observer details:
734 Farpoint Observatory, Eskridge.  Observers D. Cromer, G. Hug, D. Goodin,
    R. Valentine, P. Lessig.  Measurer G. Hug.  0.69-m f/3.54 reflector + CMO.
F52 Pan-STARRS 2, Haleakala.  Observers J. Herman, T. Lowe, P. Minguez, A.
    Schultz, I. Smith.  Measurers K. Chambers, T. de Boer, J. Fairlamb, H.
    Gao, M. Huber, C.-C. Lin, E. Magnier, Y. Ramanjooloo, R. Wainscoat, R.
    Weryk.  1.8-m Ritchey-Chretien + CCD.
H21 Astronomical Research Observatory, Westfield.  Observer R. Holmes.
    Measurers T. Linder, R. Holmes, L. Horn.  0.76-m f/3.0 astrograph + CCD.
I52 Steward Observatory, Mt. Lemmon Station.  Observers T. Beuden, R. A.
    Kowalski.  Measurers T. Beuden, V. F. Carvajal, D. Fay, J. B. Fazekas, D.
    C. Fuls, A. R. Gibbs, A. D. Grauer, H. Groeller, J. K. Hogan, R. A.
    Kowalski, S. M. Larson, G. J. Leonard, D. Rankin, R. L. Seaman, F. C.
    Shelly, K. W. Wierzchos.  1.0-m prime focus + CCD.
T12 University of Hawaii 88-inch telescope, Maunakea.  Observer J. Fairlamb.
    Measurers R. Weryk, J. Fairlamb, Y. Ramanjooloo, R. Wainscoat.  2.24-m
    f/10.1 reflector + CCD.
Orbital elements:
2024 FA1                                                 Earth MOID = 0.1071 AU
Epoch 2024 Mar. 31.0 TT = JDT 2460400.5                 Veres                   
M 323.85522              (2000.0)            P               Q                  
n   0.59961145     Peri.  229.56318     -0.48172220     +0.87394795             
a   1.3928022      Node    12.14178     -0.68215388     -0.32777401             
e   0.2506255      Incl.   17.85458     -0.55009982     -0.35885816             
P   1.64           H   22.63          G   0.15           U   8                  
Residuals in seconds of arc
240317 F52  0.1-  0.1-    240318 H21 (0.5+  0.6+)   240318 F52  0.0   0.1-
240317 F52  0.4-  0.1-    240318 I52  1.6+  1.2+    240318 F52  0.1+  0.0
240317 F52  0.2-  0.2+    240318 I52  1.3+  1.1+    240319 H21  0.1-  0.0
240317 F52  0.0   0.1+    240318 H21  0.2-  0.1+    240319 H21  0.1-  0.1+
240317 F52  0.2-  0.0     240318 I52  0.0   0.2-    240319 H21  0.1-  0.0
240317 F52  0.0   0.0     240318 I52  0.8+  0.2-    240319 T12  0.3+  0.1-
240318 H21  0.2+  0.3+    240318 H21  0.0   0.2-    240319 T12  0.4+  0.0
240318 734  0.0   0.9-    240318 734  0.2+  0.2-
Ephemeris:
2024 FA1                 a,e,i = 1.39, 0.25, 18                  q = 1.0437
Date    TT    R. A. (2000) Decl.     Delta      r    Elong.  Phase     V
2024 02 18    12 38 34.4 +40 23 00   0.3996  1.3037   135.5    32.1    22.6
...
2024 03 04    12 12 56.6 +40 57 45   0.3071  1.2474   141.8    29.4    21.8
...
2024 03 12    11 46 59.9 +39 34 08   0.2662  1.2181   143.5    29.0    21.5
...
2024 03 18    11 22 50.5 +37 05 11   0.2404  1.1967   143.3    29.8    21.2
2024 03 19    11 18 33.4 +36 31 26   0.2365  1.1932   143.1    30.1    21.2
2024 03 20    11 14 13.5 +35 54 55   0.2328  1.1897   142.8    30.4    21.2
...
2024 03 26    10 47 50.2 +31 15 29   0.2136  1.1692   140.0    33.3    21.0
...
2024 04 03    10 14 27.0 +22 26 13   0.1969  1.1434   133.1    39.7    21.0
...
2024 04 18    09 28 03.4 +01 17 02   0.1944  1.1008   115.1    55.7    21.3
M. P. C. Staff               (C) Copyright 2024 MPC           M.P.E.C. 2024-F40
    
    
More information about the Iaude
mailing list